National Weather Service Raw Text Product

Displaying AFOS PIL: RWRIA Received: 2017-08-13 16:00 UTC


117 
ASUS43 KDMX 131606
RWRIA 

WEATHER ROUNDUP FOR IOWA
NATIONAL WEATHER SERVICE DES MOINES IA
1100 AM CDT SUN AUG 13 2017

NOTE: "FAIR" INDICATES FEW OR NO CLOUDS BELOW 12,000 FEET WITH NO
SIGNIFICANT WEATHER AND/OR OBSTRUCTIONS TO VISIBILITY.

* - THESE STATIONS ARE NOT NWS STATIONS...THUS NOT UNDER NWS
QUALITY CONTROL.  THEY ALSO DO NOT REPORT WEATHER SUCH 
AS PRECIPITATION OR FOG.  

IAZ001>003-012>014-020>022-031>034-043>046-131700-
   NORTHWEST IOWA
  
CITY           SKY/WX    TMP DP  RH WIND       PRES   REMARKS
CARROLL *      LGT RAIN  66  64  94 CALM      30.03R                  
CHEROKEE *     CLOUDY    68  61  78 S15       29.99F                  
DENISON *      MOSUNNY   64  63  94 SE7       30.03S                  
LE MARS *      CLOUDY    68  61  77 S17G25    29.95F                  
ORANGE CITY *  PTSUNNY   68  63  83 S16G23    29.96S                  
SHELDON *      CLOUDY    68  61  77 S13       29.95S                  
SIOUX CITY     CLOUDY    67  66  97 SE14      29.96F                  
SPENCER        CLOUDY    70  59  68 S16       29.99S                  
STORM LAKE *   CLOUDY    66  59  77 S12       30.01S                  
$$
 
IAZ055>058-069>071-079>083-090>094-131700-
   SOUTHWEST IOWA
  
CITY           SKY/WX    TMP DP  RH WIND       PRES   REMARKS
ATLANTIC *     CLOUDY    70  61  73 S6        30.01S                  
AUDUBON *      MOSUNNY   70  63  78 S6        30.03S                  
CLARINDA *     MOSUNNY   72  63  73 S9G15     30.04S                  
COUNCIL BLFS * PTSUNNY   66  66 100 S8G14     30.00S                  
CRESTON *      PTSUNNY   72  59  64 S13       30.05R                  
HARLAN  *      CLOUDY    66  63  88 CALM      30.05R                  
LAMONI         SUNNY     74  60  61 S9        30.04S                  
RED OAK *      PTSUNNY   72  63  73 S8        30.02R                  
SHENANDOAH *   CLOUDY    72  63  73 SE8G14    30.02R                  
$$
 
IAZ047>049-059>061-072>074-084-131700-
   CENTRAL IOWA
  
CITY           SKY/WX    TMP DP  RH WIND       PRES   REMARKS
AMES           CLOUDY    67  63  87 SE3       30.03F                  
ANKENY *       CLOUDY    70  59  68 S6        30.04S                  
BOONE *        CLOUDY    66  63  88 SE5       30.02F                  
CHARITON *     MOSUNNY   75  55  50 SE9G15    30.03F                  
DES MOINES     CLOUDY    72  58  61 SE6       30.02F                  
GRINNELL*      CLOUDY    69  58  65 SE7       30.06F                  
KNOXVILLE *    CLOUDY    73  57  56 S8        30.02F                  
MARSHALLTOWN   CLOUDY    66  57  72 S9        30.04F                  
NEWTON *       CLOUDY    68  59  73 SE8       30.04F                  
PELLA *        CLOUDY    76  56  51 S7        30.05F                  
PERRY *        CLOUDY    68  62  82 SE3       30.02F                  
$$
 
IAZ004>006-015-016-023>025-035-036-131700-
   NORTH CENTRAL IOWA
  
CITY           SKY/WX    TMP DP  RH WIND       PRES   REMARKS
ALGONA *       CLOUDY    66  59  77 S9        30.02R                  
CLARION *      PTSUNNY   64  61  88 S6        30.03S                  
ESTHERVILLE    CLOUDY    65  60  84 S9        29.99S                  
FORT DODGE *   CLOUDY    66  57  72 S9        30.04R                  
MASON CITY     CLOUDY    66  55  67 S13       30.05S                  
FOREST CITY *    N/A     68  55  64 S7        30.03F                  
WEBSTER CITY * PTSUNNY   66  59  77 S5        30.01S                  
IOWA FALLS *   LGT RAIN  66  59  77 SE7       30.05F                  
$$

IAZ007>011-017>019-026>030-037>042-050>054-066-131700-
   NORTHEAST IOWA
  
CITY           SKY/WX    TMP DP  RH WIND       PRES   REMARKS
CEDAR RAPIDS   LGT RAIN  68  60  75 S8        30.06F                  
CHARLES CITY * CLOUDY    66  57  72 S12       30.05F                  
CLINTON *      PTSUNNY   71  60  68 S6        30.09S                  
DECORAH *      CLOUDY    70  55  60 CALM      30.06S                  
DUBUQUE        PTSUNNY   70  56  61 S3        30.08F                  
MONTICELLO *   CLOUDY    72  59  64 CALM      30.07S                  
OELWEIN *      CLOUDY    68  61  77 S8        30.07S                  
WATERLOO       CLOUDY    71  56  58 S12       30.04F                  
$$
 
IAZ064-065-067-068-078-131700-
   EAST CENTRAL IOWA
  
CITY           SKY/WX    TMP DP  RH WIND       PRES   REMARKS
DAVENPORT      PTSUNNY   73  57  57 VRB6      30.09F                  
IOWA CITY      CLOUDY    71  59  65 S5        30.08S                  
MT. PLEASANT * MOSUNNY   73  57  55 S8        30.07F                  
MUSCATINE *    MOSUNNY   75  57  53 S8        30.07S                  
QUAD CITIES    CLOUDY    74  58  57 S7        30.07F                  
$$
 
IAZ062-063-075>077-085>089-095>099-131700-
   SOUTHEAST IOWA
  
CITY           SKY/WX    TMP DP  RH WIND       PRES   REMARKS
BURLINGTON     SUNNY     73  60  63 S9G18     30.07S                  
FAIRFIELD *    MOSUNNY   75  54  46 SE8       30.06S                  
FORT MADISON * MOSUNNY   72  61  68 SE8       30.08S                  
KEOKUK *       SUNNY     73  59  60 SE12      30.06S                  
OSKALOOSA *      N/A     75  57  52 S9        30.05F                  
CENTERVILLE *    N/A     75  57  53 S7        30.06S                  
OTTUMWA        CLOUDY    75  56  51 SE12      30.04F                  
WASHINGTON *   MOSUNNY   73  59  60 SE7G14    30.08S                  
$$

ABBREVIATIONS USED IN REMARKS
   TC - TEMPERATURES IN CELSIUS
  WCI - WIND CHILL INDEX
   HX - HEAT INDEX
  VSB - VISIBILITY  
$$

  

126 
ASUS43 KDMX 131601
RWRIA 

WEATHER ROUNDUP FOR IOWA
NATIONAL WEATHER SERVICE DES MOINES IA
1100 AM CDT SUN AUG 13 2017

NOTE: "FAIR" INDICATES FEW OR NO CLOUDS BELOW 12,000 FEET WITH NO
SIGNIFICANT WEATHER AND/OR OBSTRUCTIONS TO VISIBILITY.

* - THESE STATIONS ARE NOT NWS STATIONS...THUS NOT UNDER NWS
QUALITY CONTROL.  THEY ALSO DO NOT REPORT WEATHER SUCH 
AS PRECIPITATION OR FOG.  

IAZ001>003-012>014-020>022-031>034-043>046-131700-
   NORTHWEST IOWA
  
CITY           SKY/WX    TMP DP  RH WIND       PRES   REMARKS
CARROLL *      LGT RAIN  66  64  94 CALM      30.03R                  
CHEROKEE *     CLOUDY    68  61  78 S15       29.99F                  
DENISON *      MOSUNNY   64  63  94 SE7       30.03S                  
LE MARS *      CLOUDY    68  61  77 S17G25    29.95F                  
ORANGE CITY *  PTSUNNY   68  63  83 S16G23    29.96S                  
SHELDON *      CLOUDY    68  61  77 S13       29.95S                  
SIOUX CITY     CLOUDY    67  66  97 SE14      29.96F                  
SPENCER        CLOUDY    70  59  68 S16       29.99S                  
STORM LAKE *   CLOUDY    66  59  77 S12       30.01S                  
$$
 
IAZ055>058-069>071-079>083-090>094-131700-
   SOUTHWEST IOWA
  
CITY           SKY/WX    TMP DP  RH WIND       PRES   REMARKS
ATLANTIC *     CLOUDY    70  61  73 S6        30.01S                  
AUDUBON *      MOSUNNY   70  63  78 S6        30.03S                  
CLARINDA *     MOSUNNY   72  63  73 S9G15     30.04S                  
COUNCIL BLFS * PTSUNNY   66  66 100 S8G14     30.00S                  
CRESTON *      PTSUNNY   72  59  64 S13       30.05R                  
HARLAN  *      CLOUDY    66  63  88 CALM      30.05R                  
LAMONI         SUNNY     74  60  61 S9        30.04S                  
RED OAK *      PTSUNNY   72  63  73 S8        30.02R                  
SHENANDOAH *   CLOUDY    72  63  73 SE8G14    30.02R                  
$$
 
IAZ047>049-059>061-072>074-084-131700-
   CENTRAL IOWA
  
CITY           SKY/WX    TMP DP  RH WIND       PRES   REMARKS
AMES           CLOUDY    67  63  87 SE3       30.03F                  
ANKENY *       CLOUDY    70  59  68 S6        30.04S                  
BOONE *        CLOUDY    66  63  88 SE5       30.02F                  
CHARITON *     MOSUNNY   75  55  50 SE9G15    30.03F                  
DES MOINES     CLOUDY    72  58  61 SE6       30.02F                  
GRINNELL*      CLOUDY    69  58  65 SE7       30.06F                  
KNOXVILLE *    CLOUDY    73  57  56 S8        30.02F                  
MARSHALLTOWN   CLOUDY    66  57  72 S9        30.04F                  
NEWTON *       CLOUDY    68  59  73 SE8       30.04F                  
PELLA *        CLOUDY    76  56  51 S7        30.05F                  
PERRY *        CLOUDY    68  62  82 SE3       30.02F                  
$$
 
IAZ004>006-015-016-023>025-035-036-131700-
   NORTH CENTRAL IOWA
  
CITY           SKY/WX    TMP DP  RH WIND       PRES   REMARKS
ALGONA *       CLOUDY    66  59  77 S9        30.02R                  
CLARION *      PTSUNNY   64  61  88 S6        30.03S                  
ESTHERVILLE    CLOUDY    65  60  84 S9        29.99S                  
FORT DODGE *   CLOUDY    66  57  72 S9        30.04R                  
MASON CITY     CLOUDY    66  55  67 S13       30.05S                  
FOREST CITY *    N/A     68  55  64 S7        30.03F                  
WEBSTER CITY * PTSUNNY   66  59  77 S5        30.01S                  
IOWA FALLS *   LGT RAIN  66  59  77 SE7       30.05F                  
$$

IAZ007>011-017>019-026>030-037>042-050>054-066-131700-
   NORTHEAST IOWA
  
CITY           SKY/WX    TMP DP  RH WIND       PRES   REMARKS
CEDAR RAPIDS   LGT RAIN  68  60  75 S8        30.06F                  
CHARLES CITY * CLOUDY    66  57  72 S12       30.05F                  
CLINTON *      PTSUNNY   71  60  68 S6        30.09S                  
DECORAH *      CLOUDY    70  55  60 CALM      30.06S                  
DUBUQUE        PTSUNNY   70  56  61 S3        30.08F                  
MONTICELLO *   CLOUDY    72  59  64 CALM      30.07S                  
OELWEIN *      CLOUDY    68  61  77 S8        30.07S                  
WATERLOO       CLOUDY    71  56  58 S12       30.04F                  
$$
 
IAZ064-065-067-068-078-131700-
   EAST CENTRAL IOWA
  
CITY           SKY/WX    TMP DP  RH WIND       PRES   REMARKS
DAVENPORT      PTSUNNY   73  57  57 VRB6      30.09F                  
IOWA CITY      CLOUDY    71  59  65 S5        30.08S                  
MUSCATINE *    MOSUNNY   75  57  53 S8        30.07S                  
QUAD CITIES    CLOUDY    74  58  57 S7        30.07F                  
$$
 
IAZ062-063-075>077-085>089-095>099-131700-
   SOUTHEAST IOWA
  
CITY           SKY/WX    TMP DP  RH WIND       PRES   REMARKS
BURLINGTON     SUNNY     73  60  63 S9G18     30.07S                  
FAIRFIELD *    MOSUNNY   75  54  46 SE8       30.06S                  
FORT MADISON * MOSUNNY   72  61  68 SE8       30.08S                  
KEOKUK *       SUNNY     73  59  60 SE12      30.06S                  
OSKALOOSA *      N/A     75  57  52 S9        30.05F                  
OTTUMWA        CLOUDY    75  56  51 SE12      30.04F                  
WASHINGTON *   MOSUNNY   73  59  60 SE7G14    30.08S                  
$$

ABBREVIATIONS USED IN REMARKS
   TC - TEMPERATURES IN CELSIUS
  WCI - WIND CHILL INDEX
   HX - HEAT INDEX
  VSB - VISIBILITY  
$$